Simultaneous Nadir Overpasses (SNOs) Predictions

Prediction of SNOs between GOES-16 and TERRA Satellite Orbit:

Table of predicted SNOs for the next 14.0 days since TLE Epoch: 5/17/2019
Index Date Time (GOES-16) GOES-16 Lat,Lon TERRA Lat,Lon Distance(km) Time Diff (sec)
1 05/18/2019 03:42:14 0.01, -75.17 -0.51, -77.55 269.89 80
2 05/20/2019 03:27:22 -0.00, -75.17 0.09, -74.58 65.62 80
3 05/22/2019 03:15:11 -0.01, -75.16 0.76, -71.63 401.49 80
4 05/22/2019 15:36:26 0.01, -75.18 0.37, -76.78 183.30 80
5 05/24/2019 15:26:55 0.01, -75.18 -0.30, -73.84 153.38 80
6 05/25/2019 03:48:19 -0.01, -75.17 -0.81, -79.03 438.13 80
7 05/26/2019 15:14:43 0.01, -75.19 -0.91, -70.87 490.67 80
8 05/27/2019 03:36:07 -0.01, -75.18 -0.21, -76.06 100.66 80
9 05/29/2019 03:21:15 -0.01, -75.20 0.40, -73.10 237.50 80
10 05/29/2019 15:42:31 0.01, -75.21 0.66, -78.27 346.96 80
11 05/31/2019 15:32:59 0.02, -75.24 0.05, -75.31 8.49 80




NCC Satellite Simultaneous Nadir Overpasses (SNOs) Prediction Service
